Grand Junction, CO

9:50 AM MST on December 06, 2019 (GMT -0700)
Walker

Weather History for KGJT - May, 2019

Change the Weather History Date:

Saturday, May 11, 2019

  Actual Average Record
Temperature  
Mean Temperature 54 °F 60 °F  
Max Temperature 71 °F 74 °F 90 °F (1934)
Min Temperature 37 °F 46 °F 31 °F (1953)
Degree Days  
Heating Degree Days 11 6  
Month to date heating degree days 121 81  
Since 1 July heating degree days 5518 5515  
Cooling Degree Days 0 1  
Month to date cooling degree days 0 8  
Year to date cooling degree days 1 11  
Growing Degree Days 4 (Base 50)    
Moisture  
Dew Point 34 °F    
Average Humidity 57    
Maximum Humidity 92    
Minimum Humidity 22    
Precipitation  
Precipitation 0.00 in 0.03 in 0.72 in (2014)
Month to date precipitation 0.12 0.35  
Year to date precipitation 5.17 3.30  
Snow  
Snow 0.00 in 0.00 in 0.20 in (1946)
Month to date snowfall 0.0 0.1  
Since 1 July snowfall 17.4 19.1  
Snow Depth 0.00 in    
Sea Level Pressure  
Sea Level Pressure 29.89 in    
Wind  
Wind Speed 5 mph (East)    
Max Wind Speed 13 mph    
Max Gust Speed 16 mph    
Visibility 10 miles    
Events      
T = Trace of Precipitation, MM = Missing Value Source: NWS Daily Summary

Daily Weather History Graph

Daily Weather History Graph

Search for Another Location

Airport or City:

Astronomy

May. 11, 2019 Rise Set
Actual Time 6:04 AM MDT 8:16 PM MDT
Civil Twilight 5:35 AM MDT 8:46 PM MDT
Nautical Twilight 4:58 AM MDT 9:23 PM MDT
Astronomical Twilight 4:18 AM MDT 10:03 PM MDT
Moon 12:17 PM MDT (5/11) 1:59 AM MDT (5/11)
Length of Visible Light 15h 11m
Length of Day
14h 11m
Waxing Crescent, 47% of the Moon is Illuminated
May 11
Waxing Crescent
May 11
First Quarter
May 18
Full
May 26
Last Quarter
Jun 3
New

Hourly Weather History & Observations

Time (MDT) Temp. Windchill Dew Point Humidity Pressure Visibility Wind Dir Wind Speed Gust Speed Precip Events Conditions
12:53 AM 44.1 °F 40.8 °F 37.9 °F 79% 29.93 in 10.0 mi East 5.8 mph - N/A   Clear
1:53 AM 43.0 °F 40.3 °F 37.9 °F 82% 29.93 in 10.0 mi ESE 4.6 mph - N/A   Clear
2:53 AM 39.0 °F 34.8 °F 36.0 °F 89% 29.94 in 10.0 mi East 5.8 mph - N/A   Clear
3:53 AM 37.9 °F 35.5 °F 35.1 °F 89% 29.95 in 10.0 mi East 3.5 mph - N/A   Clear
4:53 AM 39.9 °F 35.8 °F 36.0 °F 86% 29.95 in 10.0 mi East 5.8 mph - N/A   Clear
5:53 AM 39.9 °F 37.8 °F 35.1 °F 83% 29.96 in 10.0 mi Variable 3.5 mph - N/A   Clear
6:53 AM 41.0 °F 38.0 °F 36.0 °F 82% 29.99 in 10.0 mi SSE 4.6 mph - N/A   Clear
7:53 AM 46.0 °F 41.9 °F 37.0 °F 71% 29.97 in 10.0 mi SE 8.1 mph - N/A   Clear
8:53 AM 51.1 °F - 37.0 °F 59% 29.98 in 10.0 mi SE 10.4 mph - N/A   Clear
9:53 AM 54.0 °F - 37.0 °F 53% 29.98 in 10.0 mi Variable 5.8 mph - N/A   Clear
10:53 AM 57.9 °F - 37.9 °F 47% 29.96 in 10.0 mi SW 4.6 mph - N/A   Clear
11:53 AM 61.0 °F - 37.0 °F 41% 29.93 in 10.0 mi Variable 4.6 mph - N/A   Clear
12:53 PM 66.0 °F - 32.0 °F 28% 29.88 in 10.0 mi WSW 4.6 mph - N/A   Clear
1:53 PM 66.9 °F - 30.0 °F 25% 29.87 in 10.0 mi North - - N/A   Scattered Clouds
2:28 PM 66.9 °F - 30.9 °F 26% 29.97 in 10.0 mi Variable 4.6 mph - N/A   Scattered Clouds
2:53 PM 68.0 °F - 30.9 °F 25% 29.85 in 10.0 mi Variable 3.5 mph - N/A   Clear
3:53 PM 71.1 °F - 30.9 °F 23% 29.82 in 10.0 mi WNW 8.1 mph - N/A   Partly Cloudy
4:53 PM 69.1 °F - 30.0 °F 23% 29.81 in 10.0 mi Variable 3.5 mph - N/A   Partly Cloudy
5:53 PM 68.0 °F - 28.0 °F 22% 29.80 in 10.0 mi NNW 5.8 mph - N/A   Partly Cloudy
6:53 PM 68.0 °F - 28.0 °F 22% 29.78 in 10.0 mi ENE 3.5 mph - N/A   Mostly Cloudy
7:53 PM 66.0 °F - 30.9 °F 27% 29.79 in 10.0 mi Calm Calm - N/A   Partly Cloudy
8:53 PM 55.9 °F - 33.1 °F 42% 29.82 in 10.0 mi NE 5.8 mph - N/A   Clear
9:53 PM 54.0 °F - 30.9 °F 41% 29.83 in 10.0 mi NE 6.9 mph - N/A   Clear
10:53 PM 53.1 °F - 33.1 °F 47% 29.83 in 10.0 mi ESE 4.6 mph - N/A   Clear
11:53 PM 52.0 °F - 33.1 °F 49% 29.84 in 10.0 mi East 5.8 mph - N/A   Clear